Weather History for Smyrna, TN

Change the Weather History Date:

Sunday, December 22, 2013

  Actual Average Record
Temperature  
Mean Temperature 54 °F -  
Max Temperature 62 °F 44 °F 62 °F (2013)
Min Temperature 43 °F 30 °F 9 °F (2008)
Degree Days  
Heating Degree Days 11    
Growing Degree Days 4 (Base 50)    
Moisture  
Dew Point 56 °F    
Average Humidity 95    
Maximum Humidity 100    
Minimum Humidity 78    
Precipitation  
Precipitation 0.29 in - - ()
Sea Level Pressure  
Sea Level Pressure 29.93 in    
Wind  
Wind Speed 8 mph (SW)    
Max Wind Speed 17 mph    
Max Gust Speed 22 mph    
Visibility 8 miles    
Events Rain , Thunderstorm    
Averages and records for this station are not official NWS values.
T = Trace of Precipitation, MM = Missing Value Source: NWS Daily Summary

Daily Weather History Graph

Daily Weather History Graph

Search for Another Location

Airport:

Trip Planner

Search our weather history database for the weather conditions in past years. The results will help you decide how hot, cold, wet, or windy it might be!

Date:

Astronomy

Dec. 22, 2013 Rise Set
Actual Time 6:53 AM CST 4:36 PM CST
Civil Twilight 6:24 AM CST 5:04 PM CST
Nautical Twilight 5:52 AM CST 5:37 PM CST
Astronomical Twilight 5:21 AM CST 6:08 PM CST
Moon 9:39 PM CST (12/22) 9:57 AM CST (12/22)
Length of Visible Light 10h 39m
Length of Day
9h 42m
Waning Gibbous, 76% of the Moon is Illuminated
Dec 22
Waning Gibbous
Dec 25
Last Quarter
Jan 1
New
Jan 7
First Quarter
Jan 15
Full

Hourly Weather History & Observations

Time (CST) Temp. Windchill Dew Point Humidity Pressure Visibility Wind Dir Wind Speed Gust Speed Precip Events Conditions
12:09 AM 62.6 °F - 60.8 °F 94% 29.73 in 10.0 mi SSW 10.4 mph - 0.02 in Rain Light Rain
12:21 AM 62.6 °F - 60.8 °F 94% 29.72 in 9.0 mi South 12.7 mph 18.4 mph 0.02 in Rain , Thunderstorm Light Thunderstorms and Rain
12:56 AM 61.9 °F - 61.0 °F 97% 29.75 in 8.0 mi SSW 9.2 mph - 0.03 in Rain , Thunderstorm Light Thunderstorms and Rain
1:27 AM 62.6 °F - 60.8 °F 94% 29.74 in 10.0 mi SSW 6.9 mph 17.3 mph 0.02 in Rain Light Rain
1:37 AM 60.8 °F - 60.8 °F 100% 29.75 in 6.0 mi South 8.1 mph - 0.04 in Rain , Thunderstorm Light Thunderstorms and Rain
1:39 AM 60.8 °F - 60.8 °F 100% 29.75 in 5.0 mi SSW 10.4 mph - 0.04 in Rain , Thunderstorm Light Thunderstorms and Rain
1:56 AM 61.0 °F - 59.9 °F 96% 29.79 in 6.0 mi SSW 8.1 mph - 0.07 in Rain Light Rain
2:01 AM 60.8 °F - 60.8 °F 100% 29.78 in 5.0 mi SSW 6.9 mph - 0.01 in Rain Rain
2:13 AM 60.8 °F - 60.8 °F 100% 29.77 in 5.0 mi South 10.4 mph - 0.03 in Rain Rain
2:56 AM 59.9 °F - 59.9 °F 100% 29.82 in 7.0 mi SSW 8.1 mph - 0.08 in Rain Light Rain
3:18 AM 60.8 °F - 59.0 °F 94% 29.75 in 7.0 mi South 8.1 mph - 0.03 in Rain Light Rain
3:56 AM 59.0 °F - 59.0 °F 100% 29.81 in 10.0 mi SW 6.9 mph - 0.04 in   Partly Cloudy
4:31 AM 60.8 °F - 59.0 °F 94% 29.80 in 10.0 mi SW 3.5 mph - N/A   Overcast
4:56 AM 59.0 °F - 59.0 °F 100% 29.84 in 10.0 mi South 5.8 mph - 0.01 in   Overcast
5:56 AM 59.0 °F - 59.0 °F 100% 29.87 in 10.0 mi SW 6.9 mph - N/A   Overcast
6:35 AM 59.0 °F - 57.2 °F 94% 29.85 in 10.0 mi SSW 5.8 mph - N/A   Overcast
6:56 AM 59.0 °F - 57.9 °F 96% 29.89 in 10.0 mi Calm Calm - N/A   Scattered Clouds
7:22 AM 57.2 °F - 57.2 °F 100% 29.88 in 10.0 mi Variable 3.5 mph - N/A   Mostly Cloudy
7:56 AM 57.9 °F - 57.9 °F 100% 29.93 in 10.0 mi Calm Calm - N/A   Overcast
8:13 AM 59.0 °F - 57.2 °F 94% 29.91 in 10.0 mi Variable 3.5 mph - N/A   Overcast
8:56 AM 57.9 °F - 54.9 °F 90% 29.96 in 10.0 mi South 3.5 mph - N/A   Mostly Cloudy
9:56 AM 59.0 °F - 56.8 °F 93% 29.97 in 10.0 mi South 5.8 mph - N/A   Mostly Cloudy
10:38 AM 60.8 °F - 57.2 °F 88% 29.96 in 10.0 mi SW 6.9 mph - N/A   Mostly Cloudy
10:56 AM 59.0 °F - 55.9 °F 90% 29.98 in 10.0 mi SSW 8.1 mph - N/A   Overcast
11:56 AM 59.9 °F - 55.9 °F 87% 29.96 in 10.0 mi South 9.2 mph - N/A   Mostly Cloudy
12:56 PM 59.9 °F - 54.0 °F 81% 29.97 in 10.0 mi SW 9.2 mph - N/A   Mostly Cloudy
1:56 PM 61.0 °F - 54.0 °F 78% 29.95 in 10.0 mi South 5.8 mph - N/A   Partly Cloudy
2:27 PM 60.8 °F - 55.4 °F 82% 29.95 in 10.0 mi South 8.1 mph - N/A   Mostly Cloudy
2:40 PM 60.8 °F - 55.4 °F 82% 29.94 in 10.0 mi South 9.2 mph - N/A   Mostly Cloudy
2:56 PM 59.9 °F - 54.0 °F 81% 29.97 in 10.0 mi SSW 6.9 mph - N/A   Mostly Cloudy
3:56 PM 57.9 °F - 55.9 °F 93% 29.98 in 10.0 mi South 5.8 mph - 0.00 in Rain Light Rain
4:56 PM 57.9 °F - 55.9 °F 93% 30.04 in 10.0 mi SSW 3.5 mph - 0.00 in   Partly Cloudy
5:56 PM 56.8 °F - 55.9 °F 97% 30.02 in 7.0 mi South 4.6 mph - 0.02 in Rain Light Rain
6:56 PM 55.9 °F - 55.9 °F 100% 30.06 in 10.0 mi SSW 4.6 mph - 0.00 in   Partly Cloudy
7:56 PM 55.9 °F - 55.9 °F 100% 30.04 in 10.0 mi SW 4.6 mph - N/A   Mostly Cloudy
8:56 PM 54.9 °F - 54.9 °F 100% 30.06 in 10.0 mi Calm Calm - N/A   Scattered Clouds
9:32 PM 55.4 °F - 55.4 °F 100% 30.05 in 10.0 mi WNW 5.8 mph - N/A   Overcast
9:41 PM 55.4 °F - 53.6 °F 94% 30.06 in 10.0 mi WNW 4.6 mph - 0.00 in Rain Light Rain
9:56 PM 54.9 °F - 52.9 °F 93% 30.09 in 5.0 mi WNW 6.9 mph - 0.01 in Rain Light Rain
10:18 PM 51.8 °F - 51.8 °F 100% 30.07 in 2.5 mi North 17.3 mph 21.9 mph 0.01 in Rain Light Rain
10:25 PM 48.2 °F - 48.2 °F 100% 30.08 in 2.5 mi NNW 16.1 mph 21.9 mph 0.02 in Rain Light Rain
10:34 PM 48.2 °F - 48.2 °F 100% 30.09 in 3.0 mi NNW 17.3 mph - 0.02 in Rain Light Rain
10:47 PM 46.4 °F 39.8 °F 46.4 °F 100% 30.10 in 4.0 mi NNW 16.1 mph - 0.03 in Rain Light Rain
10:56 PM 46.9 °F - 46.9 °F 100% 30.13 in 4.0 mi NNW 17.3 mph 21.9 mph 0.03 in Rain Light Rain
11:56 PM 43.0 °F 36.4 °F 41.0 °F 93% 30.17 in 10.0 mi NNW 12.7 mph - 0.00 in   Overcast